Location: Martley
(52.2333°N, 2.3667°W)
Time: 21:22:58
(UTC+00:00)

Cosmos 2221 Rocket - Pass Details

Date: 11 December 2019
Orbit: 621 x 648 km, 82.5° (Epoch: 22 January)

Event Time Altitude Azimuth Distance (km) Brightness Sun altitude
Exits shadow 06:05:22 19° 338° (NNW) 1,480 5.2 -17.5°
Maximum altitude 06:08:22 58° 264° (W) 730 3.6 -17.1°
Drops below altitude 10° 06:12:41 10° 186° (S) 1,988 6.3 -16.5°
Sets 06:14:56 0° 182° (S) 2,892 7.2 -16.1°
